Regional Weather Roundup
Issued by NWS

Home | Current Version | Previous Version | Text Only | Print | Product List | Glossary Off
Versions: 1 2 3 4 5 6 7 8 9 10 11 12 13 14 15 16 17 18 19 20 21 22 23 24 25 26 27 28 29 30 31 32 33 34 35 36 37 38 39 40 41 42 43 44 45 46 47 48 49 50

000
ASUS43 KLSX 280007
RWRMO

WEATHER SUMMARY FOR MISSOURI
NATIONAL WEATHER SERVICE SPRINGFIELD MO
700 PM CDT MON MAR 27 2017

NOTE: "FAIR" INDICATES FEW OR NO CLOUDS BELOW 12,000 FEET WITH NO
       SIGNIFICANT WEATHER AND/OR OBSTRUCTIONS TO VISIBILITY.
       CURRENT SKY AND/OR WEATHER CONDITIONS ARE NOT AVAILABLE FOR
       CHILLICOTHE AND FARMINGTON.

MOZ001>031-035>038-043-044-053-054-280100-
...NORTHERN AND WESTERN MISSOURI...

CITY           SKY/WX    TMP DP  RH WIND       PRES   REMARKS
KANSAS CTY INT MOCLDY    52  46  80 N9        29.94R
6HR MIN TEMP:  48; 6HR MAX TEMP:  53; 6HR PCP:  0.01;

KANSAS C DTWN  CLOUDY    54  46  74 N8        29.93R
6HR MIN TEMP:  50; 6HR MAX TEMP:  54; 6HR PCP: TRACE;

LEE`S SUMMIT   CLOUDY    51  47  86 N9        29.94R
6HR MIN TEMP:  49; 6HR MAX TEMP:  53;

ST JOSEPH      CLOUDY    52  46  80 N12       29.95R
6HR MIN TEMP:  48; 6HR MAX TEMP:  56;

CHILLICOTHE      N/A     51  47  86 VRB3      29.94R
6HR MIN TEMP:  50; 6HR MAX TEMP:  52;

KIRKSVILLE     CLOUDY    50  47  89 NE8       29.93R
6HR MIN TEMP:  50; 6HR MAX TEMP:  53;


$$
MOZ066>068-077>081-088>096-101>105-280100-
...SOUTHWEST MISSOURI...

CITY           SKY/WX    TMP DP  RH WIND       PRES   REMARKS
SPRINGFIELD    CLOUDY    53  50  89 NW6       29.91R
6HR MIN TEMP:  53; 6HR MAX TEMP:  61;

JOPLIN         CLOUDY    52  50  93 NW6       29.94R
6HR MIN TEMP:  52; 6HR MAX TEMP:  55;

BRANSON        MOCLDY    55  52  88 NW8       29.91R

$$
MOZ032>034-039>042-045>050-055>058-069>072-280100-
...CENTRAL MISSOURI...

CITY           SKY/WX    TMP DP  RH WIND       PRES   REMARKS
COLUMBIA       LGT RAIN  54  54 100 NW6       29.89R FOG
6HR MIN TEMP:  52; 6HR MAX TEMP:  55; 6HR PCP:  0.10;

JEFFERSON CITY CLOUDY    56  53  90 NW7       29.89R FOG
6HR MIN TEMP:  56; 6HR MAX TEMP:  58; 6HR PCP:  0.04;

ROLLA          CLOUDY    55  54  96 NW9       29.87R
6HR MIN TEMP:  55; 6HR MAX TEMP:  61; 6HR PCP: TRACE;

SEDALIA        CLOUDY    53  50  89 N12       29.92R
6HR MIN TEMP:  52; 6HR MAX TEMP:  54; 6HR PCP: TRACE;

WHITEMAN AFB   CLOUDY    51  51 100 N9        29.92R
WARRENSBURG    CLOUDY    50  46  87 N7        29.92R
OSAGE BEACH    CLOUDY   N/A N/A N/A NW5       29.91R

$$
MOZ051-052-059>065-280100-
...EAST CENTRAL MISSOURI...

CITY           SKY/WX    TMP DP  RH WIND       PRES   REMARKS
ST LOUIS INTL  CLOUDY    58  52  80 NW7       29.87R
6HR MIN TEMP:  56; 6HR MAX TEMP:  58; 6HR PCP: TRACE;

SPIRIT OF STL  CLOUDY    57  54  89 W3        29.87R
6HR MIN TEMP:  55; 6HR MAX TEMP:  57;

ST CHARLES     CLOUDY    58  54  86 N5        29.86R
6HR MIN TEMP:  55; 6HR MAX TEMP:  58; 6HR PCP: TRACE;


$$
MOZ072>076-082>087-097>100-106>115-280100-
...SOUTH CENTRAL AND SOUTHEAST MISSOURI...

CITY           SKY/WX    TMP DP  RH WIND       PRES   REMARKS
CAPE GIRARDEAU LGT RAIN  62  57  83 S5        29.82R
6HR MIN TEMP:  58; 6HR MAX TEMP:  65; 6HR PCP:  0.06;

FARMINGTON     CLOUDY    59  55  87 N6        29.85R
6HR MIN TEMP:  59; 6HR MAX TEMP:  63; 6HR PCP: TRACE;

POPLAR BLUFF   PTCLDY    67  57  70 NW6       29.82R
6HR MIN TEMP:  58; 6HR MAX TEMP:  68; 6HR PCP:  0.01;

WEST PLAINS    PTCLDY    63  52  67 NW12      29.86R
6HR MIN TEMP:  59; 6HR MAX TEMP:  67; 6HR PCP:  0.03;


$$




USA.gov is the U.S. government's official web portal to all federal, state and local government web resources and services.